timestamp,wind_dir_avg,wind_spd_avg,wind_spd_max_dir,wind_spd_gust,battery_voltage,lat,long
2021-06-03 00:04:01+00:00,216.0,7.58,215.0,8.22,13.37,47.59359,-54.27349
2021-06-03 00:14:01+00:00,218.0,8.93,218.0,9.54,12.81,47.59359,-54.27349
2021-06-03 00:24:01+00:00,215.0,7.99,215.0,8.6,12.81,47.59359,-54.27349
2021-06-03 00:34:01+00:00,214.0,8.45,214.0,8.98,12.81,47.59359,-54.27349
2021-06-03 00:44:01+00:00,215.0,8.12,215.0,9.34,12.81,47.59359,-54.27349
2021-06-03 00:54:01+00:00,212.0,8.52,211.0,9.16,12.81,47.59359,-54.27349
2021-06-03 01:04:01+00:00,210.0,9.46,211.0,10.18,12.81,47.59359,-54.27349
2021-06-03 01:14:01+00:00,210.0,8.59,210.0,9.24,12.65,47.59359,-54.27349
2021-06-03 01:24:01+00:00,217.0,8.21,218.0,8.85,12.65,47.59359,-54.27349
2021-06-03 01:34:01+00:00,220.0,8.25,222.0,8.91,12.65,47.59359,-54.27349
2021-06-03 01:44:01+00:00,221.0,7.66,222.0,8.28,12.65,47.59359,-54.27349
2021-06-03 01:54:01+00:00,223.0,8.05,222.0,8.58,12.65,47.59359,-54.27349
2021-06-03 02:04:01+00:00,226.0,7.75,230.0,8.4,12.65,47.59359,-54.27349
2021-06-03 02:14:00+00:00,225.0,7.94,222.0,9.18,12.57,47.59359,-54.27349
2021-06-03 02:24:00+00:00,232.0,5.77,244.0,6.58,12.57,47.59359,-54.27349
2021-06-03 02:34:00+00:00,243.0,7.02,243.0,8.0,12.57,47.59359,-54.27349
2021-06-03 02:44:00+00:00,250.0,5.94,248.0,6.77,12.57,47.59359,-54.27349
2021-06-03 02:54:00+00:00,250.0,5.18,258.0,5.88,12.57,47.59359,-54.27349
2021-06-03 03:04:00+00:00,258.0,4.26,258.0,4.92,12.57,47.59359,-54.27349
2021-06-03 03:14:01+00:00,152.0,1.94,135.0,2.57,12.57,47.59359,-54.27349
2021-06-03 03:24:01+00:00,195.0,2.76,202.0,3.45,12.57,47.59359,-54.27349
2021-06-03 03:34:01+00:00,245.0,4.66,252.0,5.4,12.57,47.59359,-54.27349
2021-06-03 03:44:01+00:00,242.0,5.84,240.0,6.3,12.57,47.59359,-54.27349
2021-06-03 03:54:01+00:00,262.0,5.51,264.0,5.91,12.57,47.59359,-54.27349
2021-06-03 04:04:01+00:00,269.0,5.33,273.0,5.83,12.57,47.59359,-54.27349
2021-06-03 04:14:01+00:00,255.0,4.68,250.0,5.38,12.57,47.59359,-54.27349
2021-06-03 04:24:01+00:00,259.0,3.52,270.0,4.2,12.57,47.59359,-54.27349
2021-06-03 04:34:01+00:00,227.0,2.86,230.0,3.65,12.57,47.59359,-54.27349
2021-06-03 04:44:01+00:00,240.0,2.78,245.0,3.36,12.57,47.59359,-54.27349
2021-06-03 04:54:01+00:00,139.0,1.54,139.0,2.36,12.57,47.59359,-54.27349
2021-06-03 05:04:01+00:00,136.0,2.12,127.0,3.12,12.57,47.59359,-54.27349
2021-06-03 05:14:01+00:00,182.0,2.25,181.0,2.87,12.49,47.59359,-54.27349
2021-06-03 05:24:01+00:00,224.0,4.03,221.0,4.95,12.49,47.59359,-54.27349
2021-06-03 05:34:01+00:00,235.0,2.19,235.0,2.61,12.49,47.59359,-54.27349
2021-06-03 05:44:01+00:00,268.0,2.71,263.0,3.19,12.49,47.59359,-54.27349
2021-06-03 05:54:01+00:00,267.0,4.64,267.0,5.2,12.49,47.59359,-54.27349
2021-06-03 06:04:01+00:00,264.0,2.75,268.0,3.07,12.49,47.59359,-54.27349
2021-06-03 06:14:01+00:00,235.0,3.07,221.0,3.9,12.49,47.59359,-54.27349
2021-06-03 06:24:01+00:00,209.0,2.91,207.0,3.7,12.49,47.59359,-54.27349
2021-06-03 06:34:01+00:00,202.0,3.47,205.0,3.95,12.49,47.59359,-54.27349
2021-06-03 06:44:01+00:00,169.0,2.95,170.0,3.2,12.49,47.59359,-54.27349
2021-06-03 06:54:01+00:00,154.0,2.4,152.0,2.84,12.49,47.59359,-54.27349
2021-06-03 07:04:01+00:00,185.0,2.96,189.0,3.06,12.49,47.59359,-54.27349
2021-06-03 07:14:00+00:00,200.0,4.24,200.0,4.47,12.41,47.59359,-54.27349
2021-06-03 07:24:00+00:00,185.0,3.12,181.0,3.69,12.41,47.59359,-54.27349
2021-06-03 07:34:00+00:00,175.0,3.48,173.0,3.76,12.41,47.59359,-54.27349
2021-06-03 07:44:00+00:00,195.0,4.48,196.0,4.8,12.41,47.59359,-54.27349
2021-06-03 07:54:00+00:00,209.0,4.09,213.0,4.38,12.41,47.59359,-54.27349
2021-06-03 08:04:00+00:00,206.0,4.25,204.0,4.63,12.41,47.59359,-54.27349
2021-06-03 08:14:01+00:00,202.0,4.64,204.0,5.21,12.41,47.59359,-54.27349
2021-06-03 08:24:01+00:00,196.0,3.79,196.0,4.04,12.41,47.59359,-54.27349
2021-06-03 08:34:01+00:00,212.0,2.77,217.0,3.95,12.41,47.59359,-54.27349
2021-06-03 08:44:01+00:00,218.0,3.17,217.0,3.7,12.41,47.59359,-54.27349
2021-06-03 08:54:01+00:00,233.0,2.47,242.0,2.85,12.41,47.59359,-54.27349
2021-06-03 09:04:01+00:00,239.0,3.82,240.0,4.12,12.41,47.59359,-54.27349
2021-06-03 09:14:01+00:00,170.0,1.4,175.0,1.79,12.97,47.59359,-54.27349
2021-06-03 09:24:01+00:00,197.0,2.4,200.0,2.64,12.97,47.59359,-54.27349
2021-06-03 09:34:01+00:00,211.0,3.12,213.0,3.4,12.97,47.59359,-54.27349
2021-06-03 09:44:01+00:00,200.0,3.28,211.0,3.55,12.97,47.59359,-54.27349
2021-06-03 09:54:01+00:00,215.0,3.74,216.0,4.41,12.97,47.59359,-54.27349
2021-06-03 10:04:01+00:00,202.0,5.03,201.0,5.4,12.97,47.59359,-54.27349
2021-06-03 10:14:01+00:00,207.0,4.13,208.0,4.78,13.53,47.59359,-54.27349
2021-06-03 10:24:01+00:00,215.0,5.25,217.0,5.69,13.53,47.59359,-54.27349
2021-06-03 10:34:01+00:00,189.0,4.31,187.0,5.01,13.53,47.59359,-54.27349
2021-06-03 10:44:01+00:00,188.0,4.95,191.0,5.48,13.53,47.59359,-54.27349
2021-06-03 10:54:01+00:00,194.0,5.05,196.0,5.54,13.53,47.59359,-54.27349
2021-06-03 11:04:01+00:00,200.0,5.56,206.0,6.83,13.53,47.59359,-54.27349
2021-06-03 11:14:01+00:00,203.0,6.25,207.0,7.08,13.84,47.59359,-54.27349
2021-06-03 11:24:01+00:00,196.0,6.01,197.0,6.49,13.84,47.59359,-54.27349
2021-06-03 11:34:01+00:00,197.0,5.12,199.0,5.72,13.84,47.59359,-54.27349
2021-06-03 11:44:01+00:00,196.0,5.78,197.0,6.27,13.84,47.59359,-54.27349
2021-06-03 11:54:01+00:00,202.0,5.38,204.0,6.05,13.84,47.59359,-54.27349
2021-06-03 12:04:01+00:00,189.0,5.32,187.0,5.95,13.84,47.59359,-54.27349
2021-06-03 12:14:01+00:00,194.0,6.49,194.0,7.01,13.84,47.59359,-54.27349
2021-06-03 12:24:01+00:00,204.0,7.04,207.0,7.84,13.84,47.59359,-54.27349
2021-06-03 12:34:01+00:00,204.0,6.74,208.0,7.38,13.84,47.59359,-54.27349
2021-06-03 12:44:01+00:00,197.0,6.61,199.0,7.32,13.84,47.59359,-54.27349
2021-06-03 12:54:01+00:00,198.0,6.17,203.0,6.93,13.84,47.59359,-54.27349
2021-06-03 13:04:01+00:00,206.0,5.73,208.0,6.41,13.84,47.59359,-54.27349
2021-06-03 13:14:01+00:00,195.0,6.15,192.0,6.85,14.0,47.59359,-54.27349
2021-06-03 13:24:01+00:00,202.0,7.31,203.0,7.9,14.0,47.59359,-54.27349
2021-06-03 13:34:01+00:00,196.0,6.77,199.0,7.77,14.0,47.59359,-54.27349
2021-06-03 13:44:01+00:00,192.0,5.91,193.0,7.48,14.0,47.59359,-54.27349
2021-06-03 13:54:01+00:00,217.0,8.35,217.0,8.99,14.0,47.59359,-54.27349
2021-06-03 14:04:01+00:00,222.0,9.9,222.0,11.25,14.0,47.59359,-54.27349
2021-06-03 14:14:01+00:00,225.0,10.63,219.0,12.13,14.24,47.59359,-54.27349
2021-06-03 14:24:01+00:00,215.0,9.13,213.0,9.9,14.24,47.59359,-54.27349
2021-06-03 14:34:01+00:00,210.0,8.96,210.0,9.71,14.24,47.59359,-54.27349
2021-06-03 14:44:01+00:00,209.0,7.87,207.0,9.17,14.24,47.59359,-54.27349
2021-06-03 14:54:01+00:00,203.0,7.02,203.0,8.67,14.24,47.59359,-54.27349
2021-06-03 15:04:01+00:00,183.0,6.14,189.0,8.03,14.24,47.59359,-54.27349
2021-06-03 15:14:01+00:00,211.0,9.53,211.0,11.18,14.16,47.59359,-54.27349
2021-06-03 15:24:01+00:00,215.0,10.38,217.0,12.14,14.16,47.59359,-54.27349
2021-06-03 15:34:01+00:00,220.0,10.92,215.0,12.75,14.16,47.59359,-54.27349
2021-06-03 15:44:01+00:00,219.0,11.61,217.0,12.92,14.16,47.59359,-54.27349
2021-06-03 15:54:01+00:00,217.0,11.19,221.0,12.63,14.16,47.59359,-54.27349
2021-06-03 16:04:01+00:00,216.0,10.18,214.0,11.82,14.16,47.59359,-54.27349
2021-06-03 16:14:01+00:00,205.0,10.15,206.0,11.02,14.08,47.59359,-54.27349
2021-06-03 16:24:01+00:00,210.0,10.33,212.0,11.66,14.08,47.59359,-54.27349
2021-06-03 16:34:01+00:00,210.0,9.0,209.0,10.38,14.08,47.59359,-54.27349
2021-06-03 16:44:01+00:00,206.0,10.77,206.0,11.99,14.08,47.59359,-54.27349
2021-06-03 16:54:01+00:00,194.0,9.16,196.0,9.72,14.08,47.59359,-54.27349
2021-06-03 17:04:01+00:00,193.0,8.07,189.0,8.68,14.08,47.59359,-54.27349
2021-06-03 17:14:01+00:00,195.0,7.3,195.0,8.1,14.08,47.59359,-54.27349
2021-06-03 17:24:01+00:00,196.0,8.07,198.0,9.31,14.08,47.59359,-54.27349
2021-06-03 17:34:01+00:00,190.0,7.78,194.0,8.46,14.08,47.59359,-54.27349
2021-06-03 17:44:01+00:00,194.0,7.53,197.0,8.53,14.08,47.59359,-54.27349
2021-06-03 17:54:01+00:00,199.0,6.97,201.0,7.85,14.08,47.59359,-54.27349
2021-06-03 18:04:01+00:00,195.0,8.06,197.0,9.03,14.08,47.59359,-54.27349
2021-06-03 18:14:01+00:00,201.0,7.21,202.0,8.17,13.84,47.59359,-54.27349
2021-06-03 18:24:01+00:00,188.0,5.78,190.0,6.34,13.84,47.59359,-54.27349
2021-06-03 18:34:01+00:00,194.0,6.77,194.0,7.82,13.84,47.59359,-54.27349
2021-06-03 18:44:01+00:00,204.0,8.1,210.0,9.13,13.84,47.59359,-54.27349
2021-06-03 18:54:01+00:00,203.0,8.56,201.0,9.47,13.84,47.59359,-54.27349
2021-06-03 19:04:01+00:00,205.0,9.27,202.0,10.56,13.84,47.59359,-54.27349
2021-06-03 19:14:01+00:00,199.0,9.08,199.0,9.97,13.76,47.59359,-54.27349
2021-06-03 19:24:01+00:00,201.0,9.22,205.0,9.78,13.76,47.59359,-54.27349
2021-06-03 19:34:01+00:00,204.0,9.07,211.0,10.14,13.76,47.59359,-54.27349
2021-06-03 19:44:01+00:00,204.0,8.88,205.0,10.04,13.76,47.59359,-54.27349
2021-06-03 19:54:01+00:00,201.0,8.83,203.0,9.79,13.76,47.59359,-54.27349
2021-06-03 20:04:01+00:00,204.0,9.79,207.0,11.27,13.76,47.59359,-54.27349
2021-06-03 20:14:01+00:00,204.0,9.9,206.0,11.12,13.92,47.59359,-54.27349
2021-06-03 20:24:01+00:00,209.0,10.17,212.0,11.65,13.92,47.59359,-54.27349
2021-06-03 20:34:01+00:00,212.0,12.07,214.0,13.26,13.92,47.59359,-54.27349
2021-06-03 20:44:01+00:00,212.0,11.71,215.0,13.09,13.92,47.59359,-54.27349
2021-06-03 20:54:01+00:00,213.0,10.76,213.0,12.42,13.92,47.59359,-54.27349
2021-06-03 21:04:01+00:00,213.0,10.75,214.0,12.1,13.92,47.59359,-54.27349
2021-06-03 21:14:01+00:00,215.0,10.05,215.0,11.53,13.84,47.59359,-54.27349
2021-06-03 21:24:01+00:00,212.0,10.79,214.0,11.75,13.84,47.59359,-54.27349
2021-06-03 21:34:01+00:00,214.0,10.5,213.0,11.86,13.84,47.59359,-54.27349
2021-06-03 21:44:01+00:00,214.0,11.25,215.0,12.71,13.84,47.59359,-54.27349
2021-06-03 21:54:01+00:00,215.0,11.04,209.0,12.54,13.84,47.59359,-54.27349
2021-06-03 22:04:01+00:00,217.0,10.12,217.0,11.25,13.84,47.59359,-54.27349
2021-06-03 22:14:01+00:00,213.0,10.55,214.0,11.67,13.68,47.59359,-54.27349
2021-06-03 22:24:01+00:00,214.0,9.93,214.0,11.03,13.68,47.59359,-54.27349
2021-06-03 22:34:01+00:00,213.0,9.67,214.0,10.66,13.68,47.59359,-54.27349
2021-06-03 22:44:01+00:00,213.0,8.91,214.0,9.71,13.68,47.59359,-54.27349
2021-06-03 22:54:01+00:00,210.0,7.65,210.0,8.41,13.68,47.59359,-54.27349
2021-06-03 23:04:01+00:00,205.0,7.94,208.0,8.82,13.68,47.59359,-54.27349
2021-06-03 23:14:01+00:00,202.0,8.04,205.0,9.05,13.37,47.59359,-54.27349
2021-06-03 23:24:01+00:00,206.0,7.23,206.0,8.21,13.37,47.59359,-54.27349
2021-06-03 23:34:01+00:00,210.0,7.23,209.0,8.2,13.37,47.59359,-54.27349
2021-06-03 23:44:01+00:00,206.0,6.78,206.0,7.56,13.37,47.59359,-54.27349
2021-06-03 23:54:01+00:00,205.0,7.44,210.0,8.17,13.37,47.59359,-54.27349
